Miscellaneous Local Product
Issued by NWS Hastings, NE

Home | Current Version | Previous Version | Graphics & Text | Print | Product List | Glossary On
Versions: 1 2 3 4 5 6 7 8 9 10 11 12 13 14 15 16 17 18 19 20 21 22 23 24 25 26 27 28 29 30 31 32 33 34 35 36 37 38 39 40 41 42 43 44 45 46 47 48 49 50
253
AXUS43 KGID 261402
MISGRI

GID CWA HOURLY WEATHER ROUNDUP
NATIONAL WEATHER SERVICE HASTINGS NE
900 AM CDT MON JUN 26 2017

NOTE: "FAIR" INDICATES FEW OR NO CLOUDS BELOW 12,000 FEET WITH NO
SIGNIFICANT WEATHER AND/OR OBSTRUCTIONS TO VISIBILITY.

...SOUTH CENTRAL NEBRASKA...

CITY           SKY/WX    TMP DP  RH WIND       PRES   REMARKS
GRAND ISLAND   PTSUNNY   64  60  87 W12       30.21R
HASTINGS       CLOUDY    65  56  72 W10       30.22F
KEARNEY        CLOUDY    64  55  72 SW10G16   30.21S
ORD            MOSUNNY   64  55  72 VRB3      30.19S
YORK           CLOUDY    63  55  77 CALM      30.21F
AURORA         CLOUDY    65  58  77 NW7       30.20S
LEXINGTON      CLOUDY    65  58  79 SW5       30.22S
HOLDREGE       CLOUDY    65  57  74 SW7       30.22F
HEBRON         CLOUDY    65  56  73 NW6       30.21S

...NEBRASKA PANHANDLE...

CITY           SKY/WX    TMP DP  RH WIND       PRES   REMARKS
CHADRON        SUNNY     55  41  59 NW3       30.26F
ALLIANCE       SUNNY     58  49  72 NE6       30.25R
SCOTTSBLUFF    SUNNY     62  43  49 N7        30.25S
SIDNEY         SUNNY     62  55  77 N6        30.26S

...WESTERN AND NORTH CENTRAL NEBRASKA...

CITY           SKY/WX    TMP DP  RH WIND       PRES   REMARKS
VALENTINE      SUNNY     61  43  51 E12       30.25R
AINSWORTH      SUNNY     60  49  68 NE10      30.24S
ONEILL         MOSUNNY   61  51  68 N7        30.22R
BROKEN BOW     PTSUNNY   63  58  83 W9        30.20F
IMPERIAL       CLOUDY    60  57  89 CALM      30.23F
NORTH PLATTE   TSTM      62  60  93 W8        30.22S FOG
MCCOOK         MOSUNNY   65  58  78 SW8       30.21F

...EASTERN NEBRASKA...

CITY           SKY/WX    TMP DP  RH WIND       PRES   REMARKS
NORFOLK        SUNNY     65  53  65 NE5       30.18S
SO SIOUX CITY  SUNNY     62  55  77 VRB3      30.21S
TEKAMAH        SUNNY     62  53  72 SE10      30.19S
COLUMBUS       SUNNY     67  56  67 SW9       30.19S
ALBION         MOSUNNY   66  55  67 SW8       30.19S
OMAHA EPPLEY   CLOUDY    59  54  83 SE10      30.20S
MILLARD        CLOUDY    61  57  88 SE6       30.20F
LINCOLN        TSTM      60  57  89 SE6       30.22S
NEBRASKA CITY  TSTM      58  58 100 E7        30.24F
BEATRICE       CLOUDY    62  57  82 E5        30.22S
FALLS CITY     LGT RAIN  59  56  89 E6        30.22F

...NORTHERN KANSAS...

CITY           SKY/WX    TMP DP  RH WIND       PRES   REMARKS
GOODLAND       SUNNY     64  58  80 SW12      30.24S
HILL CITY      SUNNY     64  59  83 SW9       30.23F
NORTON         MOSUNNY   64  55  72 W9        30.22S
PHILLIPSBURG   MOSUNNY   66  55  68 SW6       30.22F
SMITH CENTER   MOSUNNY   63  55  77 W8        30.22F
HAYS           PTSUNNY   64  57  78 SW8       30.23S
RUSSELL        SUNNY     66  58  75 S13       30.20F
CONCORDIA      PTSUNNY   65  57  75 W7        30.21S
SALINA         MOSUNNY   72  60  66 SW8       30.20F
TOPEKA         CLOUDY    67  57  70 CALM      30.20R



USA.gov is the U.S. government's official web portal to all federal, state and local government web resources and services.